Miscellaneous Local Product
Issued by NWS Hastings, NE

Home | Current Version | Previous Version | Graphics & Text | Print | Product List | Glossary On
Versions: 1 2 3 4 5 6 7 8 9 10 11 12 13 14 15 16 17 18 19 20 21 22 23 24 25 26 27 28 29 30 31 32 33 34 35 36 37 38 39 40 41 42 43 44 45 46 47 48 49 50
000
AXUS43 KGID 291202
MISGRI

GID CWA HOURLY WEATHER ROUNDUP
NATIONAL WEATHER SERVICE HASTINGS NE
700 AM CDT FRI MAY 29 2015

NOTE: "FAIR" INDICATES FEW OR NO CLOUDS BELOW 12,000 FEET WITH NO
SIGNIFICANT WEATHER AND/OR OBSTRUCTIONS TO VISIBILITY.

...SOUTH CENTRAL NEBRASKA...

CITY           SKY/WX    TMP DP  RH WIND       PRES   REMARKS
GRAND ISLAND   PTCLDY    59  56  89 W9        29.94R
HASTINGS       MOCLDY    57  55  93 SW7       29.95R
KEARNEY        MOCLDY    57  54  88 NW10      29.96R
ORD            PTCLDY    58  55  90 NW6       29.93R
YORK           PTCLDY    59  59 100 SW7       29.93R
AURORA         PTCLDY    60  59  97 SW9       29.94R
LEXINGTON      PTCLDY    55  54  95 NW7       29.97R
HOLDREGE       PTCLDY    55  52  89 NW3       29.97R
HEBRON         CLOUDY    61  58  89 CALM      29.95R

...NEBRASKA PANHANDLE...

CITY           SKY/WX    TMP DP  RH WIND       PRES   REMARKS
CHADRON        CLOUDY    56  52  86 NW7       30.08R
ALLIANCE       MOCLDY    47  46  97 W7        30.07R
SCOTTSBLUFF    MOCLDY    52  50  93 W6        30.10R
SIDNEY         PTCLDY    49  46  90 NW12      30.10R

...WESTERN AND NORTH CENTRAL NEBRASKA...

CITY           SKY/WX    TMP DP  RH WIND       PRES   REMARKS
VALENTINE      CLOUDY    58  54  86 NW15      29.97R
AINSWORTH      MOCLDY    57  55  94 NW9       29.96R
ONEILL         CLOUDY    60  58  93 W8        29.90R
BROKEN BOW     MOCLDY    58  54  86 NW16      29.95R
IMPERIAL       CLOUDY    56  51  84 NW6       30.05R
NORTH PLATTE   PTCLDY    52  50  93 NW5       30.01R
MCCOOK         CLEAR     53  51  93 N3        30.00R

...EASTERN NEBRASKA...

CITY           SKY/WX    TMP DP  RH WIND       PRES   REMARKS
NORFOLK        CLOUDY    63  58  83 S6        29.89R
SO SIOUX CITY  CLOUDY    66  63  90 S8        29.87R
TEKAMAH        CLOUDY    65  63  93 S8        29.88R
COLUMBUS       MOCLDY    63  55  77 S5        29.92R
ALBION         CLOUDY    61  56  84 W5        29.91R
OMAHA EPPLEY   CLOUDY    66  63  90 SE10      29.89S
OFFUTT AFB     PTSUNNY   65  64  93 SE10      29.90R
MILLARD        CLOUDY    65  63  91 SE7       29.89S
LINCOLN        MOCLDY    63  60  90 SW8       29.92R
NEBRASKA CITY  CLOUDY    64  64 100 SW8       29.94R FOG
BEATRICE       CLOUDY    64  60  89 SE8       29.93R
FALLS CITY     CLOUDY    66  64  93 SW7       29.93R

...NORTHERN KANSAS...

CITY           SKY/WX    TMP DP  RH WIND       PRES   REMARKS
GOODLAND       CLOUDY    54  51  90 NW12      30.05R
HILL CITY      PTCLDY    53  51  93 W7        29.99R
NORTON         SUNNY     54  48  82 NW10      29.98R
SMITH CENTER   CLEAR     54  54 100 W3        29.97R
HAYS           MOCLDY    54  48  82 SW6       29.98S
RUSSELL        MOCLDY    57  55  93 S6        29.96S
CONCORDIA      CLOUDY    59  58  96 W3        29.95R
SALINA         CLOUDY    62  59  90 CALM      29.96R
TOPEKA         CLOUDY    67  65  93 S5        29.94R



USA.gov is the U.S. government's official web portal to all federal, state and local government web resources and services.